Location: Arbon
(43.0005°N, 0.7472°E)
Time: 16:53:18
(UTC+00:00)

Courier 1B Rocket - Pass Details

Date: 02 December 2020
Orbit: 920 x 1202 km, 28.2° (Epoch: 21 January)

Event Time Altitude Azimuth Distance (km) Brightness Sun altitude
Rises 04:31:53 0° 229° (SW) 4,049 - -28.2°
Reaches altitude 10° 04:35:22 10° 215° (SW) 3,110 - -27.6°
Exits shadow 04:36:56 15° 206° (SSW) 2,765 7.1 -27.3°
Maximum altitude 04:41:06 23° 168° (SSE) 2,315 7.1 -26.5°
Drops below altitude 10° 04:46:51 10° 120° (ESE) 3,119 8.5 -25.5°
Sets 04:50:20 0° 106° (ESE) 4,063 9.6 -24.8°
